Weather History for Atlanta Fulton, GA

Change the Weather History Date:

Sunday, November 25, 2012

  Actual Average Record
Temperature  
Mean Temperature 44 °F 50 °F  
Max Temperature 60 °F 61 °F 73 °F (2001)
Min Temperature 28 °F 39 °F 27 °F (2013)
Degree Days  
Heating Degree Days 21 15  
Month to date heating degree days 287  
Since 1 July heating degree days 430  
Moisture  
Dew Point 20 °F    
Average Humidity 48    
Maximum Humidity 85    
Minimum Humidity 13    
Precipitation  
Precipitation 0.00 in 0.14 in 2.15 in (1992)
Month to date precipitation 3.35  
Snow  
Snow 0.00 in - - ()
Month to date snowfall  
Since 1 July snowfall  
Since 1 September snowfall  
Snow Depth -    
Sea Level Pressure  
Sea Level Pressure 30.15 in    
Wind  
Wind Speed 1 mph (WSW)    
Max Wind Speed 7 mph    
Max Gust Speed -    
Visibility 10 miles    
Events      
T = Trace of Precipitation, MM = Missing Value Source: NWS Daily Summary

Daily Weather History Graph

Daily Weather History Graph

Search for Another Location

Airport:

Trip Planner

Search our weather history database for the weather conditions in past years. The results will help you decide how hot, cold, wet, or windy it might be!

Date:

Astronomy

Nov. 25, 2012 Rise Set
Actual Time 7:19 AM EST 5:30 PM EST
Civil Twilight 6:52 AM EST 5:57 PM EST
Nautical Twilight 6:22 AM EST 6:28 PM EST
Astronomical Twilight 5:52 AM EST 6:57 PM EST
Moon 3:42 PM EST (11/25) 4:38 AM EST (11/25)
Length of Visible Light 11h 04m
Length of Day
10h 10m
Waxing Gibbous, 93% of the Moon is Illuminated
Nov 25
Waxing Gibbous
Nov 28
Full
Dec 6
Last Quarter
Dec 13
New
Dec 20
First Quarter

Hourly Weather History & Observations

Time (EST) Temp. Dew Point Humidity Pressure Visibility Wind Dir Wind Speed Gust Speed Precip Events Conditions
12:53 AM 34.0 °F 23.0 °F 64% 30.15 in 10.0 mi Calm Calm - N/A   Clear
1:53 AM 34.0 °F 21.0 °F 59% 30.15 in 10.0 mi Calm Calm - N/A   Clear
2:53 AM 33.1 °F 19.9 °F 59% 30.15 in 10.0 mi Calm Calm - N/A   Clear
3:53 AM 32.0 °F 19.9 °F 61% 30.15 in 10.0 mi Calm Calm - N/A   Clear
4:53 AM 28.9 °F 21.0 °F 72% 30.16 in 10.0 mi Calm Calm - N/A   Clear
5:53 AM 28.9 °F 25.0 °F 85% 30.17 in 10.0 mi Calm Calm - N/A   Clear
6:53 AM 28.9 °F 23.0 °F 78% 30.19 in 10.0 mi Calm Calm - N/A   Clear
7:53 AM 30.0 °F 24.1 °F 79% 30.20 in 10.0 mi Calm Calm - N/A   Clear
8:53 AM 35.1 °F 21.9 °F 59% 30.20 in 10.0 mi Calm Calm - N/A   Clear
9:53 AM 39.9 °F 23.0 °F 51% 30.20 in 10.0 mi Calm Calm - N/A   Clear
10:53 AM 46.0 °F 21.0 °F 37% 30.20 in 10.0 mi Calm Calm - N/A   Clear
11:53 AM 51.1 °F 18.0 °F 27% 30.17 in 10.0 mi Calm Calm - N/A   Clear
12:53 PM 54.0 °F 14.0 °F 21% 30.14 in 10.0 mi Variable 3.5 mph - N/A   Clear
1:53 PM 57.0 °F 14.0 °F 18% 30.11 in 10.0 mi SSW 6.9 mph - N/A   Clear
2:53 PM 59.0 °F 10.9 °F 15% 30.08 in 10.0 mi Calm Calm - N/A   Clear
3:53 PM 60.1 °F 9.0 °F 13% 30.08 in 10.0 mi WSW 6.9 mph - N/A   Clear
4:53 PM 59.0 °F 10.9 °F 15% 30.09 in 10.0 mi West 4.6 mph - N/A   Clear
5:53 PM 53.1 °F 17.1 °F 24% 30.09 in 10.0 mi Calm Calm - N/A   Clear
6:53 PM 48.0 °F 19.9 °F 33% 30.11 in 10.0 mi Calm Calm - N/A   Clear
7:53 PM 42.1 °F 19.9 °F 41% 30.13 in 10.0 mi Calm Calm - N/A   Clear
8:53 PM 39.9 °F 23.0 °F 51% 30.13 in 10.0 mi Calm Calm - N/A   Clear
9:53 PM 37.0 °F 26.1 °F 65% 30.14 in 10.0 mi Calm Calm - N/A   Clear
10:53 PM 35.1 °F 23.0 °F 61% 30.14 in 10.0 mi Calm Calm - N/A   Clear
11:53 PM 34.0 °F 25.0 °F 70% 30.15 in 10.0 mi Calm Calm - N/A   Clear